Date_Time,Julian_Date,Latitude,Longitude,Instrument_Depth,U,V,Speed,Direction
(yyyy-mm-dd hh:mn:ss UTC),(JD),(+ deg. North),(+ deg. East),(m),(cm/s),(cm/s),(cm/s),(deg True)
1985-05-06 22:21:00 UTC,2446192.431250,25.8867,-84.3197,0050,2.20,5.75,6.1565,20.9373
1985-05-06 22:51:00 UTC,2446192.452083,25.8867,-84.3197,0050,3.80,8.45,9.2651,24.2136
1985-05-06 23:21:00 UTC,2446192.472917,25.8867,-84.3197,0050,2.63,9.55,9.9055,15.3972
1985-05-06 23:51:00 UTC,2446192.493750,25.8867,-84.3197,0050,3.40,10.00,10.5622,18.7780
1985-05-07 00:21:00 UTC,2446192.514583,25.8867,-84.3197,0050,2.98,11.95,12.3160,14.0024
1985-05-07 00:51:00 UTC,2446192.535417,25.8867,-84.3197,0050,0.35,14.28,14.2843,1.4040
1985-05-07 01:21:00 UTC,2446192.556250,25.8867,-84.3197,0050,0.00,15.53,15.5300,0.0000
1985-05-07 01:51:00 UTC,2446192.577083,25.8867,-84.3197,0050,-0.10,15.53,15.5303,359.6311
1985-05-07 02:21:00 UTC,2446192.597917,25.8867,-84.3197,0050,-0.60,16.15,16.1611,357.8723
1985-05-07 02:51:00 UTC,2446192.618750,25.8867,-84.3197,0050,0.15,15.53,15.5307,0.5534
1985-05-07 03:21:00 UTC,2446192.639583,25.8867,-84.3197,0050,0.30,14.90,14.9030,1.1535
1985-05-07 03:51:00 UTC,2446192.660417,25.8867,-84.3197,0050,0.25,22.78,22.7814,0.6288
1985-05-07 04:21:00 UTC,2446192.681250,25.8867,-84.3197,0050,-1.93,23.45,23.5293,355.2950
1985-05-07 04:51:00 UTC,2446192.702083,25.8867,-84.3197,0050,-1.85,31.00,31.0552,356.5848
1985-05-07 05:21:00 UTC,2446192.722917,25.8867,-84.3197,0050,-3.53,31.80,31.9953,353.6657
1985-05-07 05:51:00 UTC,2446192.743750,25.8867,-84.3197,0050,-4.93,29.80,30.2050,350.6063
1985-05-07 06:21:00 UTC,2446192.764583,25.8867,-84.3197,0050,-6.30,30.43,31.0753,348.3032
1985-05-07 06:51:00 UTC,2446192.785417,25.8867,-84.3197,0050,-7.65,30.73,31.6679,346.0208
1985-05-07 07:21:00 UTC,2446192.806250,25.8867,-84.3197,0050,-6.95,30.90,31.6720,347.3240
1985-05-07 07:51:00 UTC,2446192.827083,25.8867,-84.3197,0050,-5.00,30.70,31.1045,350.7497
1985-05-07 08:21:00 UTC,2446192.847917,25.8867,-84.3197,0050,-5.20,28.53,29.0000,349.6704
1985-05-07 08:51:00 UTC,2446192.868750,25.8867,-84.3197,0050,-4.73,29.53,29.9064,350.8999
1985-05-07 09:21:00 UTC,2446192.889583,25.8867,-84.3197,0050,-5.25,25.13,25.6725,348.1999
1985-05-07 09:51:00 UTC,2446192.910417,25.8867,-84.3197,0050,-4.85,23.43,23.9267,348.3050
1985-05-07 10:21:00 UTC,2446192.931250,25.8867,-84.3197,0050,-3.85,23.23,23.5469,350.5897
1985-05-07 10:51:00 UTC,2446192.952083,25.8867,-84.3197,0050,-2.15,23.80,23.8969,354.8381
1985-05-07 11:21:00 UTC,2446192.972917,25.8867,-84.3197,0050,-0.58,23.53,23.5371,358.5880
1985-05-07 11:51:00 UTC,2446192.993750,25.8867,-84.3197,0050,-1.07,22.15,22.1758,357.2344
1985-05-07 12:21:00 UTC,2446193.014583,25.8867,-84.3197,0050,0.13,23.15,23.1504,0.3217
1985-05-07 12:51:00 UTC,2446193.035417,25.8867,-84.3197,0050,1.38,20.53,20.5763,3.8456
1985-05-07 13:21:00 UTC,2446193.056250,25.8867,-84.3197,0050,1.85,16.05,16.1563,6.5752
1985-05-07 13:51:00 UTC,2446193.077083,25.8867,-84.3197,0050,0.38,14.90,14.9048,1.4609
1985-05-07 14:21:00 UTC,2446193.097917,25.8867,-84.3197,0050,1.70,15.45,15.5432,6.2791
1985-05-07 14:51:00 UTC,2446193.118750,25.8867,-84.3197,0050,2.35,13.50,13.7030,9.8748
1985-05-07 15:21:00 UTC,2446193.139583,25.8867,-84.3197,0050,0.98,9.28,9.3316,6.0283
1985-05-07 15:51:00 UTC,2446193.160417,25.8867,-84.3197,0050,-0.23,4.28,4.2862,356.9240
1985-05-07 16:21:00 UTC,2446193.181250,25.8867,-84.3197,0050,-0.68,3.65,3.7128,349.4467
1985-05-07 16:51:00 UTC,2446193.202083,25.8867,-84.3197,0050,-0.97,2.30,2.4962,337.1329
1985-05-07 17:21:00 UTC,2446193.222917,25.8867,-84.3197,0050,-2.68,2.63,3.7549,314.4605
1985-05-07 17:51:00 UTC,2446193.243750,25.8867,-84.3197,0050,-4.08,2.90,5.0056,305.4046
1985-05-07 18:21:00 UTC,2446193.264583,25.8867,-84.3197,0050,-6.05,3.40,6.9399,299.3353
1985-05-07 18:51:00 UTC,2446193.285417,25.8867,-84.3197,0050,-10.08,7.43,12.5224,306.3940
1985-05-07 19:21:00 UTC,2446193.306250,25.8867,-84.3197,0050,-12.98,7.48,14.9810,299.9536
1985-05-07 19:51:00 UTC,2446193.327083,25.8867,-84.3197,0050,-15.58,7.95,17.4911,297.0338
1985-05-07 20:21:00 UTC,2446193.347917,25.8867,-84.3197,0050,-17.80,11.58,21.2353,303.0465
1985-05-07 20:51:00 UTC,2446193.368750,25.8867,-84.3197,0050,-17.55,16.25,23.9179,312.7974
1985-05-07 21:21:00 UTC,2446193.389583,25.8867,-84.3197,0050,-17.73,15.00,23.2240,310.2320
1985-05-07 21:51:00 UTC,2446193.410417,25.8867,-84.3197,0050,-19.90,14.93,24.8780,306.8791
1985-05-07 22:21:00 UTC,2446193.431250,25.8867,-84.3197,0050,-18.75,16.75,25.1421,311.7755
1985-05-07 22:51:00 UTC,2446193.452083,25.8867,-84.3197,0050,-18.98,16.50,25.1494,311.0016
1985-05-07 23:21:00 UTC,2446193.472917,25.8867,-84.3197,0050,-17.40,19.33,26.0079,318.0079
1985-05-07 23:51:00 UTC,2446193.493750,25.8867,-84.3197,0050,-16.30,21.83,27.2441,323.2521
1985-05-08 00:21:00 UTC,2446193.514583,25.8867,-84.3197,0050,-15.65,21.55,26.6332,324.0122
1985-05-08 00:51:00 UTC,2446193.535417,25.8867,-84.3197,0050,-16.47,22.78,28.1103,324.1330
1985-05-08 01:21:00 UTC,2446193.556250,25.8867,-84.3197,0050,-12.23,25.65,28.4165,334.5081
1985-05-08 01:51:00 UTC,2446193.577083,25.8867,-84.3197,0050,-10.80,27.58,29.6192,338.6153
1985-05-08 02:21:00 UTC,2446193.597917,25.8867,-84.3197,0050,-10.15,27.80,29.5950,339.9425
1985-05-08 02:51:00 UTC,2446193.618750,25.8867,-84.3197,0050,-5.78,28.73,29.3057,348.6249
1985-05-08 03:21:00 UTC,2446193.639583,25.8867,-84.3197,0050,-8.60,28.63,29.8938,343.2806
1985-05-08 03:51:00 UTC,2446193.660417,25.8867,-84.3197,0050,-7.45,25.25,26.3261,343.5613
1985-05-08 04:21:00 UTC,2446193.681250,25.8867,-84.3197,0050,-7.60,29.53,30.4923,345.5673
1985-05-08 04:51:00 UTC,2446193.702083,25.8867,-84.3197,0050,-8.45,28.65,29.8701,343.5672
1985-05-08 05:21:00 UTC,2446193.722917,25.8867,-84.3197,0050,-6.33,31.60,32.2278,348.6726
1985-05-08 05:51:00 UTC,2446193.743750,25.8867,-84.3197,0050,-7.65,31.65,32.5614,346.4119
1985-05-08 06:21:00 UTC,2446193.764583,25.8867,-84.3197,0050,-7.48,30.45,31.3553,346.1986
1985-05-08 06:51:00 UTC,2446193.785417,25.8867,-84.3197,0050,-7.33,31.73,32.5657,346.9922
1985-05-08 07:21:00 UTC,2446193.806250,25.8867,-84.3197,0050,-8.30,29.65,30.7898,344.3613
1985-05-08 07:51:00 UTC,2446193.827083,25.8867,-84.3197,0050,-7.85,31.25,32.2209,345.8991
1985-05-08 08:21:00 UTC,2446193.847917,25.8867,-84.3197,0050,-6.78,30.65,31.3909,347.5266
1985-05-08 08:51:00 UTC,2446193.868750,25.8867,-84.3197,0050,-4.98,29.48,29.8977,350.4117
1985-05-08 09:21:00 UTC,2446193.889583,25.8867,-84.3197,0050,-2.63,29.78,29.8959,354.9531
1985-05-08 09:51:00 UTC,2446193.910417,25.8867,-84.3197,0050,-4.43,24.08,24.4841,349.5758
1985-05-08 10:21:00 UTC,2446193.931250,25.8867,-84.3197,0050,1.05,15.50,15.5355,3.8754
1985-05-08 10:51:00 UTC,2446193.952083,25.8867,-84.3197,0050,1.98,13.55,13.6939,8.3135
1985-05-08 11:21:00 UTC,2446193.972917,25.8867,-84.3197,0050,0.55,11.78,11.7928,2.6732
1985-05-08 11:51:00 UTC,2446193.993750,25.8867,-84.3197,0050,-1.35,13.00,13.0699,354.0713
1985-05-08 12:21:00 UTC,2446194.014583,25.8867,-84.3197,0050,0.18,9.90,9.9016,1.0416
1985-05-08 12:51:00 UTC,2446194.035417,25.8867,-84.3197,0050,0.40,3.65,3.6719,6.2540
1985-05-08 13:21:00 UTC,2446194.056250,25.8867,-84.3197,0050,1.15,4.18,4.3353,15.3826
1985-05-08 13:51:00 UTC,2446194.077083,25.8867,-84.3197,0050,0.73,3.00,3.0875,13.6762
1985-05-08 14:21:00 UTC,2446194.097917,25.8867,-84.3197,0050,0.78,2.98,3.0804,14.6678
1985-05-08 14:51:00 UTC,2446194.118750,25.8867,-84.3197,0050,0.20,1.20,1.2166,9.4623
1985-05-08 15:21:00 UTC,2446194.139583,25.8867,-84.3197,0050,-0.07,0.60,0.6041,353.3456
1985-05-08 15:51:00 UTC,2446194.160417,25.8867,-84.3197,0050,0.00,0.00,0.0000,0.0000
1985-05-08 16:21:00 UTC,2446194.181250,25.8867,-84.3197,0050,-0.50,0.38,0.6280,307.2348
1985-05-08 16:51:00 UTC,2446194.202083,25.8867,-84.3197,0050,-2.40,0.83,2.5395,289.0771
1985-05-08 17:21:00 UTC,2446194.222917,25.8867,-84.3197,0050,-3.10,0.73,3.1848,283.2508
1985-05-08 17:51:00 UTC,2446194.243750,25.8867,-84.3197,0050,-3.68,0.90,3.7885,283.7428
1985-05-08 18:21:00 UTC,2446194.264583,25.8867,-84.3197,0050,-6.50,2.28,6.8883,289.3293
1985-05-08 18:51:00 UTC,2446194.285417,25.8867,-84.3197,0050,-12.95,2.28,13.1492,279.9853
1985-05-08 19:21:00 UTC,2446194.306250,25.8867,-84.3197,0050,-14.30,4.60,15.0217,287.8318
1985-05-08 19:51:00 UTC,2446194.327083,25.8867,-84.3197,0050,-19.93,7.40,21.2595,290.3699
1985-05-08 20:21:00 UTC,2446194.347917,25.8867,-84.3197,0050,-24.43,9.10,26.0698,290.4300
1985-05-08 20:51:00 UTC,2446194.368750,25.8867,-84.3197,0050,-22.40,13.33,26.0662,300.7564
1985-05-08 21:21:00 UTC,2446194.389583,25.8867,-84.3197,0050,-25.07,15.23,29.3336,301.2786
1985-05-08 21:51:00 UTC,2446194.410417,25.8867,-84.3197,0050,-29.00,18.20,34.2380,302.1118
1985-05-08 22:21:00 UTC,2446194.431250,25.8867,-84.3197,0050,-29.43,20.08,35.6277,304.3056
1985-05-08 22:51:00 UTC,2446194.452083,25.8867,-84.3197,0050,-29.73,20.75,36.2551,304.9131
1985-05-08 23:21:00 UTC,2446194.472917,25.8867,-84.3197,0050,-29.70,22.38,37.1881,306.9993
1985-05-08 23:51:00 UTC,2446194.493750,25.8867,-84.3197,0050,-25.95,25.35,36.2771,314.3299
1985-05-09 00:21:00 UTC,2446194.514583,25.8867,-84.3197,0050,-23.23,27.28,35.8306,319.5843
1985-05-09 00:51:00 UTC,2446194.535417,25.8867,-84.3197,0050,-23.73,28.30,36.9324,320.0196
1985-05-09 01:21:00 UTC,2446194.556250,25.8867,-84.3197,0050,-19.77,30.15,36.0538,326.7463
1985-05-09 01:51:00 UTC,2446194.577083,25.8867,-84.3197,0050,-18.43,34.73,39.3171,332.0467
1985-05-09 02:21:00 UTC,2446194.597917,25.8867,-84.3197,0050,-14.25,37.35,39.9761,339.1169
1985-05-09 02:51:00 UTC,2446194.618750,25.8867,-84.3197,0050,-11.33,37.40,39.0785,343.1463
1985-05-09 03:21:00 UTC,2446194.639583,25.8867,-84.3197,0050,-11.75,37.50,39.2977,342.6025
1985-05-09 03:51:00 UTC,2446194.660417,25.8867,-84.3197,0050,-5.20,35.20,35.5820,351.5966
1985-05-09 04:21:00 UTC,2446194.681250,25.8867,-84.3197,0050,-2.93,32.98,33.1099,354.9231
1985-05-09 04:51:00 UTC,2446194.702083,25.8867,-84.3197,0050,-2.13,27.40,27.4827,355.5549
1985-05-09 05:21:00 UTC,2446194.722917,25.8867,-84.3197,0050,-0.53,26.90,26.9052,358.8713
1985-05-09 05:51:00 UTC,2446194.743750,25.8867,-84.3197,0050,-0.18,26.00,26.0006,359.6033
1985-05-09 06:21:00 UTC,2446194.764583,25.8867,-84.3197,0050,4.83,31.03,31.4037,8.8474
1985-05-09 06:51:00 UTC,2446194.785417,25.8867,-84.3197,0050,2.43,26.50,26.6112,5.2393
1985-05-09 07:21:00 UTC,2446194.806250,25.8867,-84.3197,0050,3.23,26.98,27.1727,6.8269
1985-05-09 07:51:00 UTC,2446194.827083,25.8867,-84.3197,0050,2.50,25.58,25.7019,5.5819
1985-05-09 08:21:00 UTC,2446194.847917,25.8867,-84.3197,0050,3.60,28.45,28.6769,7.2118
1985-05-09 08:51:00 UTC,2446194.868750,25.8867,-84.3197,0050,5.60,29.35,29.8795,10.8022
1985-05-09 09:21:00 UTC,2446194.889583,25.8867,-84.3197,0050,3.73,25.68,25.9495,8.2644
1985-05-09 09:51:00 UTC,2446194.910417,25.8867,-84.3197,0050,6.10,28.93,29.5661,11.9066
1985-05-09 10:21:00 UTC,2446194.931250,25.8867,-84.3197,0050,6.80,26.00,26.8745,14.6567
1985-05-09 10:51:00 UTC,2446194.952083,25.8867,-84.3197,0050,2.33,25.30,25.4071,5.2618
1985-05-09 11:21:00 UTC,2446194.972917,25.8867,-84.3197,0050,4.53,24.08,24.5024,10.6541
1985-05-09 11:51:00 UTC,2446194.993750,25.8867,-84.3197,0050,4.48,24.65,25.0538,10.3008
1985-05-09 12:21:00 UTC,2446195.014583,25.8867,-84.3197,0050,3.50,21.50,21.7830,9.2461
1985-05-09 12:51:00 UTC,2446195.035417,25.8867,-84.3197,0050,6.35,24.25,25.0676,14.6738
1985-05-09 13:21:00 UTC,2446195.056250,25.8867,-84.3197,0050,3.60,17.65,18.0134,11.5283
1985-05-09 13:51:00 UTC,2446195.077083,25.8867,-84.3197,0050,1.00,11.15,11.1948,5.1249
1985-05-09 14:21:00 UTC,2446195.097917,25.8867,-84.3197,0050,0.23,4.90,4.9054,2.6874
1985-05-09 14:51:00 UTC,2446195.118750,25.8867,-84.3197,0050,0.00,4.28,4.2800,0.0000
1985-05-09 15:21:00 UTC,2446195.139583,25.8867,-84.3197,0050,0.45,7.40,7.4137,3.4799
1985-05-09 15:51:00 UTC,2446195.160417,25.8867,-84.3197,0050,1.85,12.30,12.4383,8.5535
1985-05-09 16:21:00 UTC,2446195.181250,25.8867,-84.3197,0050,2.40,12.83,13.0525,10.5954
1985-05-09 16:51:00 UTC,2446195.202083,25.8867,-84.3197,0050,1.65,11.05,11.1725,8.4927
1985-05-09 17:21:00 UTC,2446195.222917,25.8867,-84.3197,0050,1.28,3.45,3.6798,20.3556
1985-05-09 17:51:00 UTC,2446195.243750,25.8867,-84.3197,0050,0.83,2.95,3.0645,15.7143
1985-05-09 18:21:00 UTC,2446195.264583,25.8867,-84.3197,0050,0.03,1.80,1.8002,0.9548
1985-05-09 18:51:00 UTC,2446195.285417,25.8867,-84.3197,0050,-0.98,1.58,1.8592,328.1906
1985-05-09 19:21:00 UTC,2446195.306250,25.8867,-84.3197,0050,-1.45,2.00,2.4703,324.0579
1985-05-09 19:51:00 UTC,2446195.327083,25.8867,-84.3197,0050,-1.30,2.10,2.4698,328.2405
1985-05-09 20:21:00 UTC,2446195.347917,25.8867,-84.3197,0050,-1.93,3.20,3.7370,328.9048
1985-05-09 20:51:00 UTC,2446195.368750,25.8867,-84.3197,0050,-2.25,2.18,3.1329,314.0947
1985-05-09 21:21:00 UTC,2446195.389583,25.8867,-84.3197,0050,-5.48,5.98,8.1112,317.4982
1985-05-09 21:51:00 UTC,2446195.410417,25.8867,-84.3197,0050,-5.85,5.65,8.1330,314.0037
1985-05-09 22:21:00 UTC,2446195.431250,25.8867,-84.3197,0050,-8.78,8.83,12.4522,315.1627
1985-05-09 22:51:00 UTC,2446195.452083,25.8867,-84.3197,0050,-9.93,10.35,14.3432,316.1864
1985-05-09 23:21:00 UTC,2446195.472917,25.8867,-84.3197,0050,-11.03,11.05,15.6129,315.0519
1985-05-09 23:51:00 UTC,2446195.493750,25.8867,-84.3197,0050,-13.78,20.63,24.8090,326.2587
1985-05-10 00:21:00 UTC,2446195.514583,25.8867,-84.3197,0050,-13.98,20.50,24.8131,325.7079
1985-05-10 00:51:00 UTC,2446195.535417,25.8867,-84.3197,0050,-15.90,23.90,28.7057,326.3653
1985-05-10 01:21:00 UTC,2446195.556250,25.8867,-84.3197,0050,-16.02,27.03,31.4207,329.3459
1985-05-10 01:51:00 UTC,2446195.577083,25.8867,-84.3197,0050,-14.00,28.10,31.3944,333.5166
1985-05-10 02:21:00 UTC,2446195.597917,25.8867,-84.3197,0050,-16.18,29.03,33.2345,330.8667
1985-05-10 02:51:00 UTC,2446195.618750,25.8867,-84.3197,0050,-14.30,31.88,34.9403,335.8410
1985-05-10 03:21:00 UTC,2446195.639583,25.8867,-84.3197,0050,-12.40,33.13,35.3745,339.4800
1985-05-10 03:51:00 UTC,2446195.660417,25.8867,-84.3197,0050,-8.40,35.23,36.2176,346.5892
1985-05-10 04:21:00 UTC,2446195.681250,25.8867,-84.3197,0050,-8.65,36.98,37.9782,346.8346
1985-05-10 04:51:00 UTC,2446195.702083,25.8867,-84.3197,0050,-8.15,39.33,40.1655,348.2928
1985-05-10 05:21:00 UTC,2446195.722917,25.8867,-84.3197,0050,-7.03,41.10,41.6969,350.2937
1985-05-10 05:51:00 UTC,2446195.743750,25.8867,-84.3197,0050,-5.00,43.00,43.2897,353.3675
1985-05-10 06:21:00 UTC,2446195.764583,25.8867,-84.3197,0050,-5.78,43.08,43.4660,352.3583
1985-05-10 06:51:00 UTC,2446195.785417,25.8867,-84.3197,0050,-6.23,44.20,44.6369,351.9770
1985-05-10 07:21:00 UTC,2446195.806250,25.8867,-84.3197,0050,-5.60,43.30,43.6606,352.6308
1985-05-10 07:51:00 UTC,2446195.827083,25.8867,-84.3197,0050,0.00,45.00,45.0000,0.0000
1985-05-10 08:21:00 UTC,2446195.847917,25.8867,-84.3197,0050,1.78,39.45,39.4901,2.5835
1985-05-10 08:51:00 UTC,2446195.868750,25.8867,-84.3197,0050,3.58,39.38,39.5424,5.1944
1985-05-10 09:21:00 UTC,2446195.889583,25.8867,-84.3197,0050,0.93,34.43,34.4426,1.5473
1985-05-10 09:51:00 UTC,2446195.910417,25.8867,-84.3197,0050,3.80,36.45,36.6475,5.9517
1985-05-10 10:21:00 UTC,2446195.931250,25.8867,-84.3197,0050,2.75,34.80,34.9085,4.5183
1985-05-10 10:51:00 UTC,2446195.952083,25.8867,-84.3197,0050,2.73,31.53,31.6480,4.9486
1985-05-10 11:21:00 UTC,2446195.972917,25.8867,-84.3197,0050,0.00,29.00,29.0000,0.0000
1985-05-10 11:51:00 UTC,2446195.993750,25.8867,-84.3197,0050,-1.20,24.50,24.5294,357.1959
1985-05-10 12:21:00 UTC,2446196.014583,25.8867,-84.3197,0050,1.80,24.40,24.4663,4.2191
1985-05-10 12:51:00 UTC,2446196.035417,25.8867,-84.3197,0050,-2.60,23.03,23.1763,353.5588
1985-05-10 13:21:00 UTC,2446196.056250,25.8867,-84.3197,0050,-0.15,25.10,25.1004,359.6576
1985-05-10 13:51:00 UTC,2446196.077083,25.8867,-84.3197,0050,4.23,25.93,26.2728,9.2651
1985-05-10 14:21:00 UTC,2446196.097917,25.8867,-84.3197,0050,2.28,23.40,23.5108,5.5651
1985-05-10 14:51:00 UTC,2446196.118750,25.8867,-84.3197,0050,-0.55,13.03,13.0416,357.5830
1985-05-10 15:21:00 UTC,2446196.139583,25.8867,-84.3197,0050,2.05,19.80,19.9058,5.9111
1985-05-10 15:51:00 UTC,2446196.160417,25.8867,-84.3197,0050,0.30,18.65,18.6524,0.9216
1985-05-10 16:21:00 UTC,2446196.181250,25.8867,-84.3197,0050,4.03,21.78,22.1497,10.4830
1985-05-10 16:51:00 UTC,2446196.202083,25.8867,-84.3197,0050,5.10,23.38,23.9298,12.3055
1985-05-10 17:21:00 UTC,2446196.222917,25.8867,-84.3197,0050,5.50,23.20,23.8430,13.3368
1985-05-10 17:51:00 UTC,2446196.243750,25.8867,-84.3197,0050,6.05,20.90,21.7580,16.1443
1985-05-10 18:21:00 UTC,2446196.264583,25.8867,-84.3197,0050,6.55,21.55,22.5234,16.9063
1985-05-10 18:51:00 UTC,2446196.285417,25.8867,-84.3197,0050,5.48,22.48,23.1383,13.6999
1985-05-10 19:21:00 UTC,2446196.306250,25.8867,-84.3197,0050,1.70,14.80,14.8973,6.5526
1985-05-10 19:51:00 UTC,2446196.327083,25.8867,-84.3197,0050,2.85,13.40,13.6997,12.0071
1985-05-10 20:21:00 UTC,2446196.347917,25.8867,-84.3197,0050,3.35,11.93,12.3914,15.6850
1985-05-10 20:51:00 UTC,2446196.368750,25.8867,-84.3197,0050,4.28,11.63,12.3925,20.2043
1985-05-10 21:21:00 UTC,2446196.389583,25.8867,-84.3197,0050,4.45,11.55,12.3776,21.0707
1985-05-10 21:51:00 UTC,2446196.410417,25.8867,-84.3197,0050,6.70,10.50,12.4555,32.5418
1985-05-10 22:21:00 UTC,2446196.431250,25.8867,-84.3197,0050,3.00,9.47,9.9338,17.5777
1985-05-10 22:51:00 UTC,2446196.452083,25.8867,-84.3197,0050,3.15,15.85,16.1600,11.2404
1985-05-10 23:21:00 UTC,2446196.472917,25.8867,-84.3197,0050,2.83,9.50,9.9126,16.5885
1985-05-10 23:51:00 UTC,2446196.493750,25.8867,-84.3197,0050,0.53,3.65,3.6883,8.2619
1985-05-11 00:21:00 UTC,2446196.514583,25.8867,-84.3197,0050,-0.28,9.28,9.2842,358.2718
1985-05-11 00:51:00 UTC,2446196.535417,25.8867,-84.3197,0050,-1.95,13.55,13.6896,351.8107
1985-05-11 01:21:00 UTC,2446196.556250,25.8867,-84.3197,0050,-2.98,14.03,14.3430,348.0085
1985-05-11 01:51:00 UTC,2446196.577083,25.8867,-84.3197,0050,-1.32,21.78,21.8200,356.5318
1985-05-11 02:21:00 UTC,2446196.597917,25.8867,-84.3197,0050,-3.65,19.60,19.9370,349.4510
1985-05-11 02:51:00 UTC,2446196.618750,25.8867,-84.3197,0050,-3.00,24.30,24.4845,352.9621
1985-05-11 03:21:00 UTC,2446196.639583,25.8867,-84.3197,0050,-1.83,25.30,25.3661,355.8629
1985-05-11 03:51:00 UTC,2446196.660417,25.8867,-84.3197,0050,-0.53,26.00,26.0054,358.8322
1985-05-11 04:21:00 UTC,2446196.681250,25.8867,-84.3197,0050,3.95,27.18,27.4655,8.2688
1985-05-11 04:51:00 UTC,2446196.702083,25.8867,-84.3197,0050,4.50,29.85,30.1873,8.5730
1985-05-11 05:21:00 UTC,2446196.722917,25.8867,-84.3197,0050,3.18,28.20,28.3787,6.4338
1985-05-11 05:51:00 UTC,2446196.743750,25.8867,-84.3197,0050,4.23,30.20,30.4948,7.9733
1985-05-11 06:21:00 UTC,2446196.764583,25.8867,-84.3197,0050,5.23,29.13,29.5958,10.1784
1985-05-11 06:51:00 UTC,2446196.785417,25.8867,-84.3197,0050,6.23,30.43,31.0612,11.5704
1985-05-11 07:21:00 UTC,2446196.806250,25.8867,-84.3197,0050,6.15,28.30,28.9605,12.2606
1985-05-11 07:51:00 UTC,2446196.827083,25.8867,-84.3197,0050,8.75,30.10,31.3460,16.2090
1985-05-11 08:21:00 UTC,2446196.847917,25.8867,-84.3197,0050,9.83,31.03,32.5498,17.5777
1985-05-11 08:51:00 UTC,2446196.868750,25.8867,-84.3197,0050,8.78,32.40,33.5686,15.1623
1985-05-11 09:21:00 UTC,2446196.889583,25.8867,-84.3197,0050,9.83,33.28,34.7014,16.4557
1985-05-11 09:51:00 UTC,2446196.910417,25.8867,-84.3197,0050,10.65,28.55,30.4717,20.4570
1985-05-11 10:21:00 UTC,2446196.931250,25.8867,-84.3197,0050,11.60,25.88,28.3608,24.1430
1985-05-11 10:51:00 UTC,2446196.952083,25.8867,-84.3197,0050,12.75,22.28,25.6702,29.7809
1985-05-11 11:21:00 UTC,2446196.972917,25.8867,-84.3197,0050,12.75,20.90,24.4821,31.3852
1985-05-11 11:51:00 UTC,2446196.993750,25.8867,-84.3197,0050,15.03,19.73,24.8027,37.2996
1985-05-11 12:21:00 UTC,2446197.014583,25.8867,-84.3197,0050,16.10,18.40,24.4493,41.1859
1985-05-11 12:51:00 UTC,2446197.035417,25.8867,-84.3197,0050,11.90,15.63,19.6445,37.2841
1985-05-11 13:21:00 UTC,2446197.056250,25.8867,-84.3197,0050,11.00,15.08,18.6656,36.1086
1985-05-11 13:51:00 UTC,2446197.077083,25.8867,-84.3197,0050,8.00,11.08,13.6663,35.8301
1985-05-11 14:21:00 UTC,2446197.097917,25.8867,-84.3197,0050,5.70,7.33,9.2854,37.8696
1985-05-11 14:51:00 UTC,2446197.118750,25.8867,-84.3197,0050,7.30,10.78,13.0192,34.1051
1985-05-11 15:21:00 UTC,2446197.139583,25.8867,-84.3197,0050,6.38,9.95,11.8198,32.6682
1985-05-11 15:51:00 UTC,2446197.160417,25.8867,-84.3197,0050,6.25,8.47,10.5263,36.4236
1985-05-11 16:21:00 UTC,2446197.181250,25.8867,-84.3197,0050,6.23,6.90,9.2964,42.0788
1985-05-11 16:51:00 UTC,2446197.202083,25.8867,-84.3197,0050,5.58,5.80,8.0484,43.8925
1985-05-11 17:21:00 UTC,2446197.222917,25.8867,-84.3197,0050,5.15,6.18,8.0446,39.8056
1985-05-11 17:51:00 UTC,2446197.243750,25.8867,-84.3197,0050,3.43,3.50,4.9005,44.4213
1985-05-11 18:21:00 UTC,2446197.264583,25.8867,-84.3197,0050,5.90,6.33,8.6533,42.9863
1985-05-11 18:51:00 UTC,2446197.285417,25.8867,-84.3197,0050,3.23,5.28,6.1896,31.4559
1985-05-11 19:21:00 UTC,2446197.306250,25.8867,-84.3197,0050,3.55,5.08,6.1975,34.9466
1985-05-11 19:51:00 UTC,2446197.327083,25.8867,-84.3197,0050,2.48,3.50,4.2896,35.3203
1985-05-11 20:21:00 UTC,2446197.347917,25.8867,-84.3197,0050,5.20,8.43,9.9048,31.6681
1985-05-11 20:51:00 UTC,2446197.368750,25.8867,-84.3197,0050,4.35,7.48,8.6529,30.1802
1985-05-11 21:21:00 UTC,2446197.389583,25.8867,-84.3197,0050,1.08,2.20,2.4508,26.1468
1985-05-11 21:51:00 UTC,2446197.410417,25.8867,-84.3197,0050,3.95,6.28,7.4190,32.1691
1985-05-11 22:21:00 UTC,2446197.431250,25.8867,-84.3197,0050,1.70,4.60,4.9041,20.2826
1985-05-11 22:51:00 UTC,2446197.452083,25.8867,-84.3197,0050,3.18,7.38,8.0360,23.3109
1985-05-11 23:21:00 UTC,2446197.472917,25.8867,-84.3197,0050,1.40,4.70,4.9041,16.5873
1985-05-11 23:51:00 UTC,2446197.493750,25.8867,-84.3197,0050,1.83,5.90,6.1773,17.2323
1985-05-12 00:21:00 UTC,2446197.514583,25.8867,-84.3197,0050,3.48,7.25,8.0419,25.6410
1985-05-12 00:51:00 UTC,2446197.535417,25.8867,-84.3197,0050,1.28,2.78,3.0605,24.7228
1985-05-12 01:21:00 UTC,2446197.556250,25.8867,-84.3197,0050,2.03,4.50,4.9367,24.2807
1985-05-12 01:51:00 UTC,2446197.577083,25.8867,-84.3197,0050,2.50,5.65,6.1784,23.8683
1985-05-12 02:21:00 UTC,2446197.597917,25.8867,-84.3197,0050,1.53,4.03,4.3107,20.7894
1985-05-12 02:51:00 UTC,2446197.618750,25.8867,-84.3197,0050,0.50,4.28,4.3091,6.6632
1985-05-12 03:21:00 UTC,2446197.639583,25.8867,-84.3197,0050,-0.28,2.40,2.4163,353.3456
1985-05-12 03:51:00 UTC,2446197.660417,25.8867,-84.3197,0050,1.85,7.20,7.4339,14.4101
1985-05-12 04:21:00 UTC,2446197.681250,25.8867,-84.3197,0050,2.23,12.88,13.0716,9.8226
1985-05-12 04:51:00 UTC,2446197.702083,25.8867,-84.3197,0050,1.73,13.55,13.6600,7.2759
1985-05-12 05:21:00 UTC,2446197.722917,25.8867,-84.3197,0050,4.80,14.13,14.9230,18.7628
1985-05-12 05:51:00 UTC,2446197.743750,25.8867,-84.3197,0050,8.85,19.23,21.1687,24.7128
1985-05-12 06:21:00 UTC,2446197.764583,25.8867,-84.3197,0050,7.83,14.83,16.7701,27.8333
1985-05-12 06:51:00 UTC,2446197.785417,25.8867,-84.3197,0050,9.03,16.30,18.6341,28.9859
1985-05-12 07:21:00 UTC,2446197.806250,25.8867,-84.3197,0050,7.70,14.90,16.7720,27.3289
1985-05-12 07:51:00 UTC,2446197.827083,25.8867,-84.3197,0050,8.65,16.53,18.6565,27.6227
1985-05-12 08:21:00 UTC,2446197.847917,25.8867,-84.3197,0050,11.90,17.50,21.1627,34.2157
1985-05-12 08:51:00 UTC,2446197.868750,25.8867,-84.3197,0050,8.90,14.90,17.3557,30.8505
1985-05-12 09:21:00 UTC,2446197.889583,25.8867,-84.3197,0050,12.83,19.70,23.5095,33.0750
1985-05-12 09:51:00 UTC,2446197.910417,25.8867,-84.3197,0050,13.53,17.05,21.7661,38.4337
1985-05-12 10:21:00 UTC,2446197.931250,25.8867,-84.3197,0050,11.10,14.25,18.0630,37.9167
1985-05-12 10:51:00 UTC,2446197.952083,25.8867,-84.3197,0050,12.00,15.08,19.2719,38.5112
1985-05-12 11:21:00 UTC,2446197.972917,25.8867,-84.3197,0050,8.40,12.30,14.8946,34.3302
1985-05-12 11:51:00 UTC,2446197.993750,25.8867,-84.3197,0050,7.28,11.60,13.6952,32.1118
1985-05-12 12:21:00 UTC,2446198.014583,25.8867,-84.3197,0050,8.45,12.25,14.8817,34.5978